This is the latest recevied weather packets stored in our database for station/object OK1TBF-6. If no packets are shown the sender has not sent any weather packets the latest 10 day(s).
| Time | Temp. | Humidity | Pressure | Rain* | Wind** | Luminosity | Snow |
|---|---|---|---|---|---|---|---|
| 1777671611 | 15° C | 47% | 1016.9 hPa | 0 mm | - | - | - |
| 1777668910 | 15° C | 46% | 1016.8 hPa | 0 mm | - | - | - |
| 1777668611 | 15° C | 45% | 1016.8 hPa | 0 mm | - | - | - |
| 1777668311 | 15.56° C | 45% | 1016.8 hPa | 0 mm | - | - | - |
| 1777667411 | 15.56° C | 44% | 1016.8 hPa | 0 mm | - | - | - |
| 1777667111 | 15.56° C | 45% | 1016.8 hPa | 0 mm | - | - | - |
| 1777665312 | 15° C | 46% | 1016.8 hPa | 0 mm | - | - | - |
| 1777664742 | 15.56° C | 45% | 1016.6 hPa | 0 mm | - | - | - |
| 1777664143 | 15.56° C | 44% | 1016.6 hPa | 0 mm | - | - | - |
| 1777662343 | 16.11° C | 43% | 1016.6 hPa | 0 mm | - | - | - |
| 1777660843 | 16.11° C | 43% | 1016.6 hPa | 0 mm | - | - | - |
| 1777659941 | 16.11° C | 43% | 1016.4 hPa | 0 mm | - | - | - |
| 1777658442 | 17.22° C | 42% | 1016.2 hPa | 0 mm | - | - | - |
| 1777657842 | 17.22° C | 42% | 1016.1 hPa | 0 mm | - | - | - |
| 1777656341 | 17.78° C | 40% | 1015.8 hPa | 0 mm | - | - | - |
| 1777653342 | 18.89° C | 39% | 1015.9 hPa | 0 mm | - | - | - |
| 1777652140 | 19.44° C | 39% | 1015.9 hPa | 0 mm | - | - | - |
| 1777651840 | 20° C | 39% | 1016 hPa | 0 mm | - | - | - |
| 1777649741 | 20° C | 38% | 1016 hPa | 0 mm | - | - | - |
| 1777648541 | 19.44° C | 37% | 1016 hPa | 0 mm | - | - | - |
| 1777647941 | 19.44° C | 37% | 1016.2 hPa | 0 mm | - | - | - |
| 1777646741 | 19.44° C | 37% | 1016.2 hPa | 0 mm | - | - | - |
| 1777645840 | 19.44° C | 36% | 1016.5 hPa | 0 mm | - | - | - |
| 1777643139 | 18.89° C | 38% | 1016.8 hPa | 0 mm | - | - | - |
| 1777639840 | 18.33° C | 38% | 1017.5 hPa | 0 mm | - | - | - |
* Rain latest hour (hover to see other rain measurements)
** Current wind speed in m/s (hover to see current wind gust speed)